Zurück zum Katalog

STARLINK-31534

AktivKommunikationVLEO
NORAD 59398·PAYLOAD·🇺🇸 United States

Gestartet Apr 5, 2024 von Cape Canaveral Space Force Station

Loading…

Nächste Überflüge (nächste 24 Stunden)

TLE

AktuellSource: CelesTrak SupGP

Epoche: Sep 15, 2026, 03:15 UTC

1 59398C 24064A   26258.13590278 -.00025810  00000+0 -93450-3 0  2587
2 59398  43.0029  65.9096 0001718 270.1538  82.1644 15.27602264    13

Verfolge STARLINK-31534 in Echtzeit mit AllMySat

Download on the App Store